Погода в Эльтоне

Хотите узнать прогноз погоды в Эльтоне? Тогда Вам сюда: Погода в Эльтоне

Поиск расширенной информации на нашем сайте:

Полезная информация:

Новости сайта



02.01.2020
Опубликован Долгосрочный прогноз погоды по городам России и ближнего зарубежья на январь 2020 года.
Карты: Прогноз на январь и февраль 2020 года, Сравнение прогнозируемой аномалии приземной температуры воздуха на январь 2020 года по разным моделям.




Погода в Эльтоне - сегодня

Время (UTC), дата Ветер
(°,м/с) 
Видим.   Явления Облачность Т
(°С)
Тd
(°С)
f(%) Тe
(°С)
Pmin
(гПа)
dP
(гПа)
Po
(мм)
O2
(г/м3)
Тmin Tmax R s Состояние
почвы
15 18.10.20 150 (ЮВ) 6{14}  20000 м    9/5 600 м кучево-дожд., средняя, верхняя 
[Cb cap|Ac trans|Ci]
+22.6 +5.1 32 +23  1009.8  -1.6  757  281    +25       
18 18.10.20 140 (ЮВ) 20000 м    8/0 верхняя 
[Ci]
+15.2 +9.6 69 +15  1015.2  0.6  761  289           
21 18.10.20 150 (ЮВ) 20000 м    8/0 средняя, верхняя 
[Ac trans|Ci]
+14.4 +10.9 79 +17  1015.1  0.1  761  289           
00 19.10.20 210 (ЮЗ) 20000 м    9/0 средняя, верхняя 
[Ac trans|Ci]
+13.2 +10.9 86 +16  1015.8  0.7  761  291           
03 19.10.20 060 (СВ) 20000 м    10/0 средняя 
[Ac und]
+14 +10.3 78 +15  1015.4  -0.4  761  290  +13.2         
06 19.10.20 360 (С) 20000 м    10/0 средняя 
[Ac und]
+14.6 +10.7 77 +17  1016.8  1.4  762  290  +13.2         
09 19.10.20 320 (СЗ) 20000 м    10/5 600 м кучево-дожд., средняя 
[Cb cap|Ac trans]
+16.2 +10.5 69 +18  1017.2  0.3  762  288           
12 19.10.20 360 (С) 20000 м    8/5 600 м кучево-дожд., средняя 
[Cb cap|Ac trans]
+14.4 +10 75 +15  1016.6  -0.6  762  290           
15 19.10.20 360 (С) 20000 м    10/4 600 м кучево-дожд., средняя 
[Cb cap|Ac trans]
+13 +6.9 66 +13  1016.6  762  292    +17.2       
18 19.10.20 360 (С) 10 км  слаб. ливневой дождь  10/10 300 м кучево-дожд. 
[Cb cap]
+11.7 +6 68 +11  1016.6  -0.1  762  293           
21 19.10.20 330 (СЗ) 10 км  слаб. ливневой дождь  10/10 300 м кучево-дожд. 
[Cb cap]
+8.8 +4.8 76 +7  1017.7  1.2  763  297           
00 20.10.20 320 (СЗ) 4000 м  ливневой дождь  10/10 300 м кучево-дожд. 
[Cb cap]
+7.5 +5.8 89 +7  1018.6  0.9  763  298           
03 20.10.20 260 (З) 20000 м  {ливн. осадки}  6/3 600 м кучево-дожд., верхняя 
[Cb cap|Ci]
+7.6 +4.9 83 +6  1019.9  1.2  764  299  +7.3       
06 20.10.20 270 (З) 20000 м  {ливн. осадки}  3/3 600 м кучево-дожд. 
[Cb cap]
+8.8 +5 77 +7  1020.7  0.9  765  298  +6.8         
09 20.10.20 270 (З) 20000 м    5/3 600 м кучево-дожд., средняя 
[Cb cap|Ac trans]
+12.7 +4.3 57 +12  1020.7  765  294           
12 20.10.20 270 (З) 20000 м    6/3 600 м кучево-дожд., средняя 
[Cb cap|Ac trans]
+13.3 +3.1 50 +12  1020.5  -0.2  765  293           
15 20.10.20 300 (СЗ) 20000 м    3/3 600 м кучево-дожд. 
[Cb cap]
+9 +2.9 66 +9  1020.6  -0.1  765  298    +13.7       
18 20.10.20 270 (З) 20000 м    ясно 
+6.3 +1.1 69 +6  1021  0.3  765  301           
21 20.10.20 260 (З) 20000 м    ясно 
+3.9 -0.9 71 +3  1021.2  0.2  765  304           
00 21.10.20 290 (З) 20000 м    ясно 
+3.9 -1.3 69 +5  1021.4  0.3  766  304           
03 21.10.20 290 (З) 20000 м    ясно 
+2.3 -1.9 74 1022.6  1.2  766  306  +1.7         
06 21.10.20 290 (З) 20000 м    ясно 
+5.2 +0 69 +3  1024.1  1.6  768  304           
09 21.10.20 270 (З) 9-12{13}  20000 м    3/3 1000 м 
[Cu hum]
+9.1 -0.2 52 +7  1024.3  0.2  768  299           
12 21.10.20 270 (З) 9-12{13}  20000 м    3/3 1000 м верхняя 
[Cu hum|Ci fib]
+9.2 -4.2 39 +7  1024.2  -0.1  768  300           
15 21.10.20 270 (З) 4{12}  20000 м    3/0 верхняя 
[Ci fib]
+6.1 -2.7 53 +5  1025.1  0.9  768  303    +9.6       
Время (UTC), дата Ветер
(°,м/с) 
Видим.   Явления Облачность Т
(°С)
Тd
(°С)
f(%) Тe
(°С)
Pmin
(гПа)
dP
(гПа)
Po
(мм)
O2
(г/м3)
Тmin Tmax R s Состояние
почвы

Для получения пояснительной информации подведите курсор к названию столбца.

ПОГОДА в Эльтоне - архив

Всё, что Вы хотите узнать о погоде в Эльтоне - удобно и подробно!

Выберите нужную дату (начиная с 1 января 2019* года) и нажмите кнопку "Найти".
Будут отображены архивные сводки погоды по пункту Эльтон, начиная с указанной даты.


Отображать данные в формате CSV (для использования в таблицах Excel)


Внимание! Наш архив погоды предназначен исключительно для личного некоммерческого использования в познавательных целях. Если Вам необходимы официальные справки о состоянии погоды (для производственных, юридических, коммерческих и т.п. целей), обращайтесь в органы Росгидромета.

*Примечание: данная дата относится к архиву по метеостанциям СССР (Россия, СНГ, Балтия).
Архив по метеостанциям Зарубежной Европы и Азии (кроме Китая) хранится 10 дней, по другим регионам земного шара (Китай, Африка, Америка, Австралия, Океания) - 1 день.

Эльтон - район местоположения метеостанции


Название, широта, долгота, высота метеостанции:
Эльтон 49.1°ш. 46.9°д. 6 м над ур. моря [Российская Федерация]

Дополнительная информация

В oтличие oт бoльшинства пoгoдных сайтoв мы публикуем пoдрoбную метеoинфoрмацию в детальнoм прoфессиoнальнoм фoрмате.

Характеристики температуры и влажнoсти вoздуха измеряются на высoте 2 м в тени вдали oт зданий и деревьев.
Скoрoсть ветра измеряется на высoте 10 м (на урoвне рoста челoвека скoрoсть ветра ниже в 1.5-2 раза). Если метеoстанция нахoдится в гoрoде или в лесу, тo скoрoсть ветра занижена на 2-4 м/с пo сравнению с oткрытым местoм. Скoрoсть ветра над акватoриями крупных рек и oзёр, а также на вершинах хoлмoв на 2-5 м/с выше, чем в oбычных услoвиях.
Атмoсфернoе давление в разных тoчках местнoсти мoжет значительнo oтличаться oт давления на метеoстанции, в зависимoсти oт услoвий рельефа (при пoдъёме на 10 м давление пoнижается примернo на 1 мм рт.ст.).